Brisbane, Queensland

6:59 AM AEST on September 30, 2016 (GMT +1000)
Brisbane International

Weather History for YBBN - May, 2014

Change the Weather History Date:

Friday, May 9, 2014

  Actual Average Record
Temperature  
Mean Temperature 64 °F -  
Max Temperature 74 °F 73 °F 78 °F (2016)
Min Temperature 54 °F 55 °F 50 °F (2008)
Degree Days  
Heating Degree Days 1    
Growing Degree Days 14 (Base 50)    
Moisture  
Dew Point 54 °F    
Average Humidity 67    
Maximum Humidity 94    
Minimum Humidity 31    
Precipitation  
Precipitation 0.02 in - - ()
Sea Level Pressure  
Sea Level Pressure 30.19 in    
Wind  
Wind Speed 8 mph ()    
Max Wind Speed 13 mph    
Max Gust Speed 24 mph    
Visibility 8.2 miles    
Events Rain    
Averages and records for this station are not official NWS values.
T = Trace of Precipitation, MM = Missing Value Source: Averaged Metar Reports

Daily Weather History Graph

Daily Weather History Graph

Search for Another Location

Airport or City:

Trip Planner

Search our weather history database for the weather conditions in past years. The results will help you decide how hot, cold, wet, or windy it might be!

Date:

Astronomy

May. 09, 2014 Rise Set
Actual Time 6:17 AM AEST 5:10 PM AEST
Civil Twilight 5:52 AM AEST 5:35 PM AEST
Nautical Twilight 5:24 AM AEST 6:03 PM AEST
Astronomical Twilight 4:56 AM AEST 6:30 PM AEST
Moon 1:31 PM AEST (5/9) 12:47 AM AEST (5/9)
Length of Visible Light 11h 42m
Length of Day
10h 53m
Waxing Gibbous, 68% of the Moon is Illuminated
May 9
Waxing Gibbous
May 15
Full
May 21
Last Quarter
May 29
New
Jun 6
First Quarter

Hourly Weather History & Observations

Time (AEST) Temp. Dew Point Humidity Pressure Visibility Wind Dir Wind Speed Gust Speed Precip Events Conditions
12:00 AM 62 °F 56 °F 74% 30.18 in 19 mi SSW 8.1 mph - -   Mostly Cloudy
12:00 AM 60.8 °F 55.4 °F 82% 30.18 in 6.2 mi SSW 8.1 mph - N/A   Mostly Cloudy
12:30 AM 60.8 °F 55.4 °F 82% 30.18 in 6.2 mi SSW 8.1 mph - N/A   Mostly Cloudy
1:00 AM 60 °F 55 °F 80% 30.18 in - SSW 8.1 mph - -  
1:00 AM 59.0 °F 55.4 °F 88% 30.18 in 6.2 mi SSW 8.1 mph - N/A   Mostly Cloudy
1:30 AM 59.0 °F 55.4 °F 88% 30.15 in 6.2 mi SSW 8.1 mph - N/A   Mostly Cloudy
2:00 AM 60.8 °F 53.6 °F 77% 30.15 in 6.2 mi South 8.1 mph - N/A   Mostly Cloudy
2:30 AM 59.0 °F 53.6 °F 82% 30.15 in 6.2 mi SSW 8.1 mph - N/A   Scattered Clouds
3:00 AM 60 °F 54 °F 73% 30.17 in 19 mi SSW 9.2 mph - -   Partly Cloudy
3:00 AM 59.0 °F 53.6 °F 82% 30.15 in 6.2 mi SSW 9.2 mph - N/A   Partly Cloudy
3:30 AM 57.2 °F 53.6 °F 88% 30.15 in 6.2 mi SSW 8.1 mph - N/A   Partly Cloudy
4:00 AM 59 °F 53 °F 76% 30.16 in - SSW 5.8 mph - -  
4:00 AM 59.0 °F 53.6 °F 82% 30.15 in 6.2 mi SSW 5.8 mph - N/A   Partly Cloudy
4:30 AM 57.2 °F 53.6 °F 88% 30.15 in - SSW 5.8 mph - N/A   Clear
5:00 AM 55.4 °F 53.6 °F 94% 30.15 in - SSW 9.2 mph - N/A   Clear
5:30 AM 57.2 °F 53.6 °F 88% 30.18 in 6.2 mi SSW 9.2 mph - N/A   Partly Cloudy
6:00 AM 57 °F 53 °F 83% 30.20 in 19 mi SSW 9.2 mph - -   Partly Cloudy
6:00 AM 57.2 °F 53.6 °F 88% 30.18 in 6.2 mi SSW 9.2 mph - N/A   Partly Cloudy
6:30 AM 55.4 °F 53.6 °F 94% 30.21 in 6.2 mi SSW 10.4 mph - N/A   Partly Cloudy
7:00 AM 58 °F 54 °F 84% 30.22 in - SSW 11.5 mph - -  
7:00 AM 57.2 °F 55.4 °F 94% 30.21 in 6.2 mi SSW 11.5 mph - N/A   Partly Cloudy
7:30 AM 60.8 °F 55.4 °F 82% 30.21 in 6.2 mi SSW 11.5 mph - N/A   Partly Cloudy
8:00 AM 62.6 °F 55.4 °F 77% 30.24 in 6.2 mi SSW 11.5 mph - N/A   Partly Cloudy
8:30 AM 64.4 °F 53.6 °F 68% 30.24 in 6.2 mi SSW 12.7 mph - N/A   Partly Cloudy
9:00 AM 67 °F 53 °F 52% 30.25 in 19 mi SSW 9.2 mph - -   Partly Cloudy
9:00 AM 68.0 °F 53.6 °F 60% 30.24 in 6.2 mi SSW 9.2 mph - N/A   Partly Cloudy
9:30 AM 69.8 °F 51.8 °F 53% 30.24 in 6.2 mi South 9.2 mph - N/A   Partly Cloudy
10:00 AM 71 °F 51 °F 38% 30.25 in - South 11.5 mph - -  
10:00 AM 69.8 °F 51.8 °F 53% 30.24 in 6.2 mi South 11.5 mph - N/A   Partly Cloudy
10:30 AM 71.6 °F 51.8 °F 50% 30.21 in 6.2 mi SSE 9.2 mph - N/A   Partly Cloudy
11:00 AM 73.4 °F 48.2 °F 41% 30.21 in 6.2 mi SE 10.4 mph - N/A   Partly Cloudy
11:30 AM 73.4 °F 48.2 °F 41% 30.18 in 6.2 mi ESE 11.5 mph - N/A   Partly Cloudy
12:00 PM 74 °F 49 °F 31% 30.19 in 19 mi ESE 10.4 mph - -   Partly Cloudy
12:00 PM 73.4 °F 50.0 °F 44% 30.18 in 6.2 mi ESE 10.4 mph - N/A   Partly Cloudy
12:30 PM 73.4 °F 53.6 °F 50% 30.15 in 6.2 mi ESE 11.5 mph - N/A   Scattered Clouds
1:00 PM 72 °F 53 °F 40% 30.17 in - ESE 10.4 mph - -  
1:00 PM 73.4 °F 53.6 °F 50% 30.15 in 6.2 mi ESE 10.4 mph - N/A   Mostly Cloudy
1:30 PM 73.4 °F 53.6 °F 50% 30.15 in 6.2 mi ESE 12.7 mph - N/A   Mostly Cloudy
2:00 PM 73.4 °F 53.6 °F 50% 30.15 in 6.2 mi ESE 12.7 mph - N/A   Mostly Cloudy
2:30 PM 73.4 °F 55.4 °F 53% 30.15 in 6.2 mi ESE 11.5 mph - N/A   Mostly Cloudy
3:00 PM 71 °F 57 °F 51% 30.16 in 19 mi ESE 12.7 mph - -   Partly Cloudy
3:00 PM 71.6 °F 57.2 °F 60% 30.15 in 6.2 mi ESE 12.7 mph - N/A   Mostly Cloudy
3:30 PM 69.8 °F 55.4 °F 60% 30.15 in 6.2 mi ESE 11.5 mph - N/A   Mostly Cloudy
4:00 PM 68 °F 59 °F 64% 30.17 in - ESE 12.7 mph - -  
4:00 PM 68.0 °F 59.0 °F 73% 30.15 in 6.2 mi ESE 12.7 mph 24.2 mph N/A   Mostly Cloudy
4:30 PM 68.0 °F 57.2 °F 68% 30.15 in 6.2 mi ESE 10.4 mph - N/A   Mostly Cloudy
5:00 PM 68.0 °F 59.0 °F 73% 30.15 in 6.2 mi ESE 8.1 mph - N/A   Mostly Cloudy
5:30 PM 68.0 °F 55.4 °F 64% 30.15 in 6.2 mi SE 5.8 mph - N/A   Mostly Cloudy
6:00 PM 68 °F 56 °F 57% 30.18 in 19 mi SSE 5.8 mph - -   Partly Cloudy
6:00 PM 68.0 °F 55.4 °F 64% 30.18 in 6.2 mi SSE 5.8 mph - N/A   Mostly Cloudy
6:30 PM 66.2 °F 55.4 °F 68% 30.18 in 6.2 mi SSE 6.9 mph - N/A   Mostly Cloudy
7:00 PM 67 °F 56 °F 59% 30.22 in - SSE 8.1 mph - -  
7:00 PM 66.2 °F 55.4 °F 68% 30.21 in 6.2 mi SSE 8.1 mph - N/A   Mostly Cloudy
7:30 PM 66.2 °F 55.4 °F 68% 30.21 in 6.2 mi South 8.1 mph - N/A   Scattered Clouds
8:00 PM 66.2 °F 55.4 °F 68% 30.21 in 6.2 mi SSE 9.2 mph - N/A   Scattered Clouds
8:30 PM 68.0 °F 55.4 °F 64% 30.21 in 6.2 mi SSE 8.1 mph - N/A   Mostly Cloudy
9:00 PM 66 °F 54 °F 57% 30.24 in 19 mi SSE 8.1 mph - -   Mostly Cloudy
9:00 PM 66.2 °F 55.4 °F 68% 30.24 in 6.2 mi SSE 8.1 mph - N/A   Mostly Cloudy
9:30 PM 66.2 °F 53.6 °F 64% 30.24 in 6.2 mi South 8.1 mph - N/A   Scattered Clouds
10:00 PM 64 °F 54 °F 61% 30.24 in - South 6.9 mph - -  
10:00 PM 64.4 °F 53.6 °F 68% 30.21 in - South 6.9 mph - N/A   Clear
10:30 PM 64.4 °F 53.6 °F 68% 30.21 in - South 6.9 mph - N/A   Clear
11:00 PM 62.6 °F 55.4 °F 77% 30.21 in 6.2 mi SSE 8.1 mph - N/A Rain Light Rain Showers
11:30 PM 64.4 °F 57.2 °F 77% 30.21 in 6.2 mi SSE 6.9 mph - N/A   Mostly Cloudy